Погода в Неаполе

Италия     40°51′11″N   14°14′58″E
темп.,
°C
ветер,
м/с
пор.,
м/с
влажн.,
%
обл.,
%
осадки,
мм/ч
давл.,
гПа
погр.,
м
25 февраля, чт
чт2501:00+14ююв22660 0.0 103246
04:00+13юв11720 0.0 1031113
07:00+13св11630 0.0 103185
10:00+14зюз01510 0.0 1032168
13:00+15юз22530 0.0 1031227
16:00+15зюз22580 0.0 1030196
19:00+14зсз22670 0.0 1030111
22:00+14ссз22670 0.0 103157
26 февраля, пт
пт2601:00+14ссз22630 0.0 103053
04:00+14с12620 0.0 102944
07:00+13ссв01640 0.0 102944
10:00+15юв11570 0.0 1029162
13:00+15юз22560 0.0 1028266
16:00+15зюз22660 0.0 1026279
19:00+14зсз23770 0.0 1027179
22:00+14сз22810 0.0 1027104
27 февраля, сб
сб2701:00+14зсз12800 0.0 1026121
04:00+13зюз01790 0.0 1025114
07:00+13ююв11790 0.0 1024160
10:00+14ююв22750 0.0 1025248
13:00+14ююз21720 0.0 1024249
16:00+15зюз22710 0.0 1023210
19:00+15сз22750 0.0 1024118
22:00+15с12750 0.0 102534
28 февраля, вс
вс2801:00+14св23640 0.0 102591
04:00+14ссв34650 0.0 1025123
07:00+13св56560 0.0 1025296
10:00+15св57450 0.0 1026495
13:00+16всв22450 0.0 1026319
16:00+16юз13450 0.0 1026413
19:00+15ссв23510 0.0 1026178
22:00+14св45420 0.0 1028261
1 марта, пн
пн101:00+12св34410 0.0 1028237
04:00+11св33440 0.0 1028208
07:00+11св33480 0.0 1028206
10:00+12св12390 0.0 1029305
13:00+14ююз22430 0.0 1029451
16:00+13ююз32620 0.0 1028386
19:00+13з12700 0.0 1029315
22:00+13с22650 0.0 1031329